This demonstration page uses our WeatherBlox Daily Observations layout. Learn more.

Hourly Observations for October 5, 2020

Temp ( °F °C ) Dew Point ( °F °C ) Humidity (%) Winds ( mph kmh ) Pressure ( in mb ) Visibility ( mi km ) Precip ( " mm )
12:15 am 00:15 Clear 52 11 50 10 94 94 SSW 6 9 30.1 1019 10 16.0934 0 0
12:35 am 00:35 Clear 50 10 48 9 94 94 WSW 5 7 30.11 1020 10 16.0934 0 0
12:55 am 00:55 Partly Cloudy 52 11 50 10 94 94 Calm 30.1 1019 10 16.0934 0 0
1:35 am 01:35 Cloudy 52 11 50 10 94 94 W 7 11 30.1 1019 10 16.0934 0 0
1:55 am 01:55 Cloudy 54 12 50 10 88 88 W 6 9 30.12 1020 10 16.0934 0 0
2:15 am 02:15 Cloudy 54 12 50 10 88 88 W 6 9 30.12 1020 10 16.0934 0 0
2:35 am 02:35 Cloudy 55 13 50 10 82 82 W 3 6 30.11 1020 10 16.0934 0 0
2:55 am 02:55 Cloudy 54 12 52 11 94 94 S 3 6 30.11 1020 10 16.0934 0 0
3:15 am 03:15 Cloudy 52 11 52 11 100 100 W 3 6 30.11 1020 10 16.0934 0 0
3:35 am 03:35 Cloudy 52 11 52 11 100 100 SSW 5 7 30.1 1019 10 16.0934 0 0
3:55 am 03:55 Cloudy 52 11 52 11 100 100 W 3 6 30.11 1020 10 16.0934 0 0
4:15 am 04:15 Cloudy 50 10 50 10 100 100 Calm 30.12 1020 10 16.0934 0 0
4:35 am 04:35 Cloudy 50 10 50 10 100 100 Calm 30.13 1020 10 16.0934 0 0
4:55 am 04:55 Cloudy 50 10 50 10 100 100 Calm 30.14 1021 10 16.0934 0 0
5:35 am 05:35 Partly Cloudy 50 10 50 10 100 100 Calm 30.15 1021 10 16.0934 0 0
5:55 am 05:55 Clear 48 9 48 9 100 100 NW 3 6 30.15 1021 7 11.26538 0 0
6:15 am 06:15 Partly Cloudy N/A N/A N/A Calm N/A 10 16.0934 0 0
6:35 am 06:35 Partly Cloudy N/A N/A N/A Calm N/A 10 16.0934 0 0
6:55 am 06:55 Partly Cloudy 46 8 46 8 100 100 Calm 30.17 1022 10 16.0934 0 0
7:15 am 07:15 Sunny 46 8 46 8 100 100 N 3 6 30.18 1022 10 16.0934 0 0
7:35 am 07:35 Sunny 48 9 48 9 100 100 N 5 7 30.19 1022 10 16.0934 0 0
7:55 am 07:55 Sunny 48 9 48 9 100 100 NW 7 11 30.19 1022 10 16.0934 0 0
8:15 am 08:15 Sunny 50 10 50 10 100 100 NNW 9 15 30.2 1023 10 16.0934 0 0
8:35 am 08:35 Sunny 52 11 50 10 94 94 NW 9 15 30.19 1023 10 16.0934 0 0
8:55 am 08:55 Sunny 54 12 50 10 88 88 NW 8 13 30.21 1023 10 16.0934 0 0
9:15 am 09:15 Sunny 54 12 50 10 88 88 N 6 9 30.21 1023 10 16.0934 0 0
9:35 am 09:35 Sunny 55 13 50 10 82 82 NNW 13 20 30.21 1023 10 16.0934 0 0
9:55 am 09:55 Sunny 55 13 50 10 82 82 NNW 7 11 30.21 1023 10 16.0934 0 0
10:15 am 10:15 Sunny 57 14 48 9 72 72 N 7 11 30.22 1023 10 16.0934 0 0
10:35 am 10:35 Sunny 59 15 50 10 72 72 NNW 13 20 30.22 1023 10 16.0934 0 0
10:55 am 10:55 Sunny 59 15 48 9 68 68 NNW 16 26 30.23 1024 10 16.0934 0 0
11:15 am 11:15 Sunny 59 15 50 10 72 72 N 15 24 30.23 1024 10 16.0934 0 0
11:35 am 11:35 Partly Cloudy 61 16 50 10 68 68 NNW 13 20 30.23 1024 10 16.0934 0 0
11:55 am 11:55 Partly Cloudy 61 16 48 9 63 63 N 10 17 30.23 1024 10 16.0934 0 0
12:15 pm 12:15 Mostly Cloudy 63 17 48 9 59 59 N 15 24 30.22 1023 10 16.0934 0 0
12:35 pm 12:35 Partly Cloudy 63 17 48 9 59 59 N 13 20 30.22 1023 10 16.0934 0 0
12:55 pm 12:55 Partly Cloudy 63 17 48 9 59 59 NW 9 15 30.22 1023 10 16.0934 0 0
1:15 pm 13:15 Mostly Cloudy 63 17 46 8 56 56 N 9 15 30.22 1023 10 16.0934 0 0
1:35 pm 13:35 Cloudy 63 17 48 9 59 59 N 10 17 30.21 1023 10 16.0934 0 0
1:55 pm 13:55 Cloudy 63 17 46 8 56 56 NNW 8 13 30.21 1023 10 16.0934 0 0
2:15 pm 14:15 Mostly Cloudy 63 17 46 8 56 56 NNW 7 11 30.2 1023 10 16.0934 0 0
2:35 pm 14:35 Partly Cloudy 64 18 46 8 52 52 NNW 13 20 30.18 1022 10 16.0934 0 0
2:55 pm 14:55 Partly Cloudy 64 18 46 8 52 52 NNE 9 15 30.18 1022 10 16.0934 0 0
3:15 pm 15:15 Partly Cloudy 64 18 45 7 49 49 NNE 5 7 30.18 1022 10 16.0934 0 0
3:35 pm 15:35 Mostly Cloudy 63 17 45 7 52 52 N 8 13 30.19 1022 10 16.0934 0 0
3:55 pm 15:55 Mostly Cloudy 63 17 43 6 49 49 N 12 19 30.18 1022 10 16.0934 0 0
4:15 pm 16:15 Partly Cloudy 64 18 46 8 52 52 NW 5 7 30.17 1022 10 16.0934 0 0
4:35 pm 16:35 Mostly Cloudy 64 18 45 7 49 49 N 10 17 30.17 1022 10 16.0934 0 0
4:55 pm 16:55 Partly Cloudy 63 17 45 7 52 52 N 5 7 30.18 1022 10 16.0934 0 0
5:15 pm 17:15 Sunny 64 18 45 7 49 49 NNE 7 11 30.17 1022 10 16.0934 0 0
5:35 pm 17:35 Sunny 63 17 45 7 52 52 N 5 7 30.19 1022 10 16.0934 0 0
5:55 pm 17:55 Sunny 63 17 45 7 52 52 N 7 11 30.19 1022 10 16.0934 0 0
6:15 pm 18:15 Sunny 61 16 46 8 59 59 NW 6 9 30.19 1022 10 16.0934 0 0
6:35 pm 18:35 Sunny 61 16 48 9 63 63 W 3 6 30.19 1022 10 16.0934 0 0
6:55 pm 18:55 Clear 59 15 48 9 68 68 Calm 30.2 1023 10 16.0934 0 0
7:15 pm 19:15 Clear 55 13 48 9 77 77 NW 3 6 30.2 1023 10 16.0934 0 0
7:35 pm 19:35 Clear 55 13 50 10 82 82 WNW 3 6 30.21 1023 10 16.0934 0 0
7:55 pm 19:55 Clear 54 12 50 10 88 88 Calm 30.21 1023 10 16.0934 0 0
8:15 pm 20:15 Clear 52 11 48 9 88 88 W 5 7 30.22 1024 10 16.0934 0 0
8:35 pm 20:35 Clear 52 11 48 9 88 88 W 3 6 30.22 1024 10 16.0934 0 0
8:55 pm 20:55 Clear 52 11 48 9 88 88 W 5 7 30.22 1024 10 16.0934 0 0
9:15 pm 21:15 Clear 50 10 46 8 88 88 W 5 7 30.23 1024 10 16.0934 0 0
9:35 pm 21:35 Clear 50 10 46 8 88 88 W 3 6 30.23 1024 10 16.0934 0 0
9:55 pm 21:55 Clear 50 10 46 8 88 88 W 3 6 30.23 1024 10 16.0934 0 0
10:15 pm 22:15 Clear 50 10 46 8 88 88 Calm 30.23 1024 10 16.0934 0 0
10:35 pm 22:35 Clear 48 9 46 8 94 94 W 3 6 30.23 1024 10 16.0934 0 0
10:55 pm 22:55 Clear 46 8 46 8 100 100 Calm 30.23 1024 10 16.0934 0 0
11:15 pm 23:15 Clear 48 9 46 8 94 94 Calm 30.23 1024 10 16.0934 0 0
11:35 pm 23:35 Clear 46 8 45 7 93 93 Calm 30.23 1024 10 16.0934 0 0
11:55 pm 23:55 Clear 46 8 45 7 93 93 Calm 30.23 1024 10 16.0934 0 0

Powered by AerisWeather